• In Deutschland
  • Länderverzeichnis
  • Für 7 Tage
  • Wassertemperatur
  • Satellitenkarten
  • Wetterkarte
  • Widgets
  • user-avatar
    Anmelden

    Stündliche Wetter Hangzhou

    Heute, 23 Juni, Samstag

    Zeit Temperatur Niederschläge Wind Luftdruck Luftfeuchtigkeit
    00:00 +23°C° 1,2 mm 1 m/S 752 mmHg 96%
    01:00 +23°C° 1,2 mm 1 m/S 752 mmHg 96%
    02:00 +22°C° 0 mm 1 m/S 752 mmHg 96%
    03:00 +22°C° 0,6 mm 1 m/S 752 mmHg 96%
    04:00 +22°C° 0,6 mm 1 m/S 752 mmHg 96%
    05:00 +22°C° 0,6 mm 1 m/S 752 mmHg 96%
    06:00 +23°C° 0,4 mm 1 m/S 752 mmHg 95%
    07:00 +23°C° 0,4 mm 1 m/S 752 mmHg 94%
    08:00 +22°C° 0 mm 1 m/S 753 mmHg 91%
    09:00 +23°C° 0,5 mm 1 m/S 753 mmHg 90%
    10:00 +23°C° 0,5 mm 1 m/S 753 mmHg 90%
    11:00 +24°C° 0,5 mm 1 m/S 753 mmHg 90%
    12:00 +24°C° 0,3 mm 1 m/S 753 mmHg 88%
    13:00 +24°C° 0,3 mm 1 m/S 753 mmHg 87%
    14:00 +24°C° 0 mm 1 m/S 753 mmHg 86%
    15:00 +24°C° 0,2 mm 1 m/S 753 mmHg 87%
    16:00 +24°C° 0,2 mm 1 m/S 753 mmHg 87%
    17:00 +24°C° 0,2 mm 1 m/S 753 mmHg 88%
    18:00 +23°C° 0 mm 1 m/S 753 mmHg 90%
    19:00 +23°C° 0 mm 1 m/S 753 mmHg 92%
    20:00 +22°C° 0 mm 1 m/S 753 mmHg 94%
    21:00 +22°C° 0 mm 1 m/S 753 mmHg 94%
    22:00 +22°C° 0 mm 1 m/S 754 mmHg 94%
    23:00 +22°C° 0 mm 1 m/S 754 mmHg 95%

    Morgen, 24 Juni, Sonntag

    Zeit Temperatur Niederschläge Wind Luftdruck Luftfeuchtigkeit
    00:00 +22°C° 0 mm 1 m/S 754 mmHg 95%
    01:00 +20°C° 0 mm 0 m/S 754 mmHg 95%
    02:00 +19°C° 0 mm 0 m/S 754 mmHg 95%
    03:00 +20°C° 0 mm 0 m/S 753 mmHg 95%
    04:00 +20°C° 0 mm 0 m/S 753 mmHg 95%
    05:00 +20°C° 0 mm 0 m/S 753 mmHg 95%
    06:00 +21°C° 0 mm 0 m/S 754 mmHg 92%
    07:00 +25°C° 0 mm 1 m/S 754 mmHg 88%
    08:00 +26°C° 0 mm 1 m/S 754 mmHg 84%
    09:00 +28°C° 0,1 mm 1 m/S 754 mmHg 81%
    10:00 +29°C° 0,1 mm 1 m/S 754 mmHg 77%
    11:00 +30°C° 0,1 mm 1 m/S 754 mmHg 74%
    12:00 +31°C° 0,1 mm 1 m/S 753 mmHg 71%
    13:00 +32°C° 0,1 mm 2 m/S 753 mmHg 68%
    14:00 +34°C° 0,1 mm 2 m/S 752 mmHg 65%
    15:00 +34°C° 0,7 mm 2 m/S 752 mmHg 69%
    16:00 +33°C° 0,7 mm 3 m/S 752 mmHg 73%
    17:00 +31°C° 0,7 mm 3 m/S 752 mmHg 77%
    18:00 +30°C° 0,6 mm 3 m/S 752 mmHg 82%
    19:00 +28°C° 0,6 mm 2 m/S 753 mmHg 87%
    20:00 +27°C° 0,6 mm 2 m/S 753 mmHg 92%
    21:00 +27°C° 0,1 mm 1 m/S 753 mmHg 93%
    22:00 +26°C° 0,1 mm 1 m/S 753 mmHg 94%
    23:00 +26°C° 0,1 mm 1 m/S 754 mmHg 95%

    übermorgen, 25 Juni, Montag

    Zeit Temperatur Niederschläge Wind Luftdruck Luftfeuchtigkeit
    00:00 +26°C° 0 mm 1 m/S 753 mmHg 95%
    01:00 +26°C° 0 mm 1 m/S 753 mmHg 96%
    02:00 +26°C° 0 mm 1 m/S 753 mmHg 96%
    03:00 +26°C° 0 mm 1 m/S 753 mmHg 96%
    04:00 +26°C° 0 mm 1 m/S 753 mmHg 96%
    05:00 +26°C° 0 mm 1 m/S 753 mmHg 96%
    06:00 +27°C° 0 mm 1 m/S 753 mmHg 90%
    07:00 +29°C° 0 mm 1 m/S 753 mmHg 85%
    08:00 +31°C° 0 mm 1 m/S 754 mmHg 79%
    09:00 +32°C° 0,7 mm 1 m/S 754 mmHg 72%
    10:00 +34°C° 0,7 mm 1 m/S 753 mmHg 65%
    11:00 +37°C° 0,7 mm 2 m/S 753 mmHg 58%
    12:00 +38°C° 0,2 mm 2 m/S 753 mmHg 55%
    13:00 +38°C° 0,2 mm 2 m/S 752 mmHg 51%
    14:00 +39°C° 0,2 mm 1 m/S 752 mmHg 48%
    15:00 +39°C° 0,1 mm 2 m/S 752 mmHg 51%
    16:00 +38°C° 0,1 mm 2 m/S 751 mmHg 54%
    17:00 +38°C° 0,1 mm 2 m/S 751 mmHg 57%
    18:00 +36°C° 0 mm 2 m/S 751 mmHg 63%
    19:00 +34°C° 0 mm 2 m/S 751 mmHg 68%
    20:00 +32°C° 0 mm 2 m/S 752 mmHg 73%
    21:00 +31°C° 0 mm 2 m/S 752 mmHg 74%
    22:00 +31°C° 0 mm 2 m/S 752 mmHg 75%
    23:00 +30°C° 0 mm 1 m/S 752 mmHg 77%

    26 Juni, Dienstag

    Zeit Temperatur Niederschläge Wind Luftdruck Luftfeuchtigkeit
    00:00 +30°C° 0 mm 2 m/S 752 mmHg 78%
    01:00 +29°C° 0 mm 2 m/S 752 mmHg 79%
    02:00 +29°C° 0 mm 2 m/S 752 mmHg 80%
    03:00 +29°C° 0 mm 2 m/S 752 mmHg 82%
    04:00 +28°C° 0 mm 2 m/S 752 mmHg 83%
    05:00 +28°C° 0 mm 2 m/S 752 mmHg 84%
    06:00 +29°C° 0 mm 2 m/S 752 mmHg 80%
    07:00 +31°C° 0 mm 2 m/S 752 mmHg 76%
    08:00 +32°C° 0 mm 2 m/S 753 mmHg 72%
    09:00 +35°C° 0 mm 3 m/S 753 mmHg 65%
    10:00 +37°C° 0 mm 3 m/S 753 mmHg 58%
    11:00 +38°C° 0 mm 4 m/S 753 mmHg 52%
    12:00 +40°C° 0 mm 4 m/S 752 mmHg 49%
    13:00 +41°C° 0 mm 4 m/S 752 mmHg 47%
    14:00 +41°C° 0 mm 4 m/S 751 mmHg 45%
    15:00 +41°C° 0 mm 4 m/S 751 mmHg 47%
    16:00 +40°C° 0 mm 3 m/S 751 mmHg 49%
    17:00 +40°C° 0 mm 2 m/S 751 mmHg 51%
    18:00 +38°C° 0 mm 2 m/S 751 mmHg 55%
    19:00 +36°C° 0 mm 2 m/S 752 mmHg 59%
    20:00 +34°C° 0 mm 2 m/S 752 mmHg 63%
    21:00 +34°C° 0 mm 2 m/S 752 mmHg 66%
    22:00 +32°C° 0 mm 2 m/S 752 mmHg 68%
    23:00 +31°C° 0 mm 2 m/S 753 mmHg 70%

    27 Juni, Mittwoch

    Zeit Temperatur Niederschläge Wind Luftdruck Luftfeuchtigkeit
    00:00 +31°C° 0 mm 2 m/S 752 mmHg 73%
    01:00 +30°C° 0 mm 2 m/S 752 mmHg 75%
    02:00 +30°C° 0 mm 2 m/S 752 mmHg 77%
    03:00 +30°C° 0 mm 2 m/S 752 mmHg 79%
    04:00 +29°C° 0 mm 2 m/S 752 mmHg 80%
    05:00 +29°C° 0 mm 2 m/S 752 mmHg 81%
    06:00 +30°C° 0,1 mm 2 m/S 752 mmHg 78%
    07:00 +31°C° 0,1 mm 2 m/S 752 mmHg 75%
    08:00 +33°C° 0,1 mm 3 m/S 753 mmHg 72%
    09:00 +35°C° 0,1 mm 3 m/S 752 mmHg 66%
    10:00 +36°C° 0,1 mm 3 m/S 752 mmHg 60%
    11:00 +37°C° 0,1 mm 4 m/S 752 mmHg 54%
    12:00 +38°C° 0,2 mm 3 m/S 752 mmHg 53%
    13:00 +38°C° 0,2 mm 3 m/S 752 mmHg 52%
    14:00 +38°C° 0,2 mm 3 m/S 751 mmHg 51%
    15:00 +38°C° 0,2 mm 3 m/S 751 mmHg 55%
    16:00 +37°C° 0,2 mm 2 m/S 751 mmHg 59%
    17:00 +36°C° 0,2 mm 2 m/S 751 mmHg 64%
    18:00 +35°C° 0,4 mm 2 m/S 752 mmHg 68%
    19:00 +32°C° 0,4 mm 1 m/S 752 mmHg 73%
    20:00 +31°C° 0,4 mm 1 m/S 752 mmHg 78%
    21:00 +30°C° 1,1 mm 1 m/S 752 mmHg 80%
    22:00 +30°C° 1,1 mm 1 m/S 752 mmHg 82%
    23:00 +29°C° 1,1 mm 1 m/S 752 mmHg 84%

    28 Juni, Donnerstag

    Zeit Temperatur Niederschläge Wind Luftdruck Luftfeuchtigkeit
    00:00 +29°C° 0,1 mm 1 m/S 752 mmHg 85%
    01:00 +29°C° 0,1 mm 1 m/S 752 mmHg 85%
    02:00 +29°C° 0,1 mm 1 m/S 751 mmHg 86%
    03:00 +29°C° 0,3 mm 1 m/S 751 mmHg 86%
    04:00 +28°C° 0,3 mm 1 m/S 751 mmHg 87%
    05:00 +28°C° 0,3 mm 1 m/S 751 mmHg 88%
    06:00 +29°C° 0,1 mm 1 m/S 752 mmHg 87%
    07:00 +29°C° 0,1 mm 1 m/S 752 mmHg 86%
    08:00 +30°C° 0,1 mm 2 m/S 752 mmHg 85%
    09:00 +31°C° 1,3 mm 2 m/S 752 mmHg 79%
    10:00 +32°C° 1,3 mm 2 m/S 752 mmHg 73%
    11:00 +34°C° 1,3 mm 2 m/S 752 mmHg 68%
    12:00 +34°C° 0,8 mm 2 m/S 752 mmHg 69%
    13:00 +34°C° 0,8 mm 2 m/S 751 mmHg 70%
    14:00 +34°C° 0,8 mm 2 m/S 751 mmHg 71%
    15:00 +32°C° 0,9 mm 2 m/S 751 mmHg 75%
    16:00 +31°C° 0,9 mm 1 m/S 751 mmHg 79%
    17:00 +30°C° 0,9 mm 1 m/S 751 mmHg 83%
    18:00 +29°C° 0,2 mm 2 m/S 751 mmHg 84%
    19:00 +29°C° 0,2 mm 2 m/S 751 mmHg 86%
    20:00 +28°C° 0,2 mm 2 m/S 751 mmHg 87%
    21:00 +28°C° 0,1 mm 2 m/S 751 mmHg 87%
    22:00 +28°C° 0,1 mm 2 m/S 751 mmHg 87%
    23:00 +28°C° 0,1 mm 1 m/S 752 mmHg 87%
    Mehr zeigen